Year,Month,Day,Hour,Minute,Value (Times are PST for temperature in C)
2020,06,07,00,00,9.90
2020,06,07,00,01,9.90
2020,06,07,00,02,9.90
2020,06,07,00,03,9.90
2020,06,07,00,04,9.90
2020,06,07,00,05,9.80
2020,06,07,00,06,9.80
2020,06,07,00,07,9.80
2020,06,07,00,08,9.80
2020,06,07,00,09,9.80
2020,06,07,00,10,9.80
2020,06,07,00,11,9.80
2020,06,07,00,12,9.80
2020,06,07,00,13,9.80
2020,06,07,00,14,9.80
2020,06,07,00,15,9.80
2020,06,07,00,16,9.80
2020,06,07,00,17,9.80
2020,06,07,00,18,9.80
2020,06,07,00,19,9.80
2020,06,07,00,20,9.80
2020,06,07,00,21,9.80
2020,06,07,00,22,9.80
2020,06,07,00,23,9.80
2020,06,07,00,24,9.80
2020,06,07,00,25,9.80
2020,06,07,00,26,9.80
2020,06,07,00,27,9.80
2020,06,07,00,28,9.80
2020,06,07,00,29,9.80
2020,06,07,00,30,9.80
2020,06,07,00,31,9.80
2020,06,07,00,32,9.80
2020,06,07,00,33,9.80
2020,06,07,00,34,9.80
2020,06,07,00,35,9.80
2020,06,07,00,36,9.80
2020,06,07,00,37,9.80
2020,06,07,00,38,9.80
2020,06,07,00,39,9.80
2020,06,07,00,40,9.80
2020,06,07,00,41,9.80
2020,06,07,00,42,9.70
2020,06,07,00,43,9.70
2020,06,07,00,44,9.70
2020,06,07,00,45,9.70
2020,06,07,00,46,9.70
2020,06,07,00,47,9.70
2020,06,07,00,48,9.70
2020,06,07,00,49,9.70
2020,06,07,00,50,9.70
2020,06,07,00,51,9.70
2020,06,07,00,52,9.70
2020,06,07,00,53,9.70
2020,06,07,00,54,9.70
2020,06,07,00,55,9.60
2020,06,07,00,56,9.60
2020,06,07,00,57,9.60
2020,06,07,00,58,9.60
2020,06,07,00,59,9.60
2020,06,07,01,00,9.60
2020,06,07,01,01,9.60
2020,06,07,01,02,9.50
2020,06,07,01,03,9.50
2020,06,07,01,04,9.50
2020,06,07,01,05,9.40
2020,06,07,01,06,9.40
2020,06,07,01,07,9.40
2020,06,07,01,08,9.40
2020,06,07,01,09,9.40
2020,06,07,01,10,9.40
2020,06,07,01,11,9.40
2020,06,07,01,12,9.40
2020,06,07,01,13,9.40
2020,06,07,01,14,9.40
2020,06,07,01,15,9.40
2020,06,07,01,16,9.40
2020,06,07,01,17,9.40
2020,06,07,01,18,9.30
2020,06,07,01,19,9.30
2020,06,07,01,20,9.30
2020,06,07,01,21,9.30
2020,06,07,01,22,9.30
2020,06,07,01,23,9.30
2020,06,07,01,24,9.30
2020,06,07,01,25,9.20
2020,06,07,01,26,9.20
2020,06,07,01,27,9.20
2020,06,07,01,28,9.20
2020,06,07,01,29,9.20
2020,06,07,01,30,9.20
2020,06,07,01,31,9.20
2020,06,07,01,32,9.20
2020,06,07,01,33,9.10
2020,06,07,01,34,9.10
2020,06,07,01,35,9.10
2020,06,07,01,36,9.10
2020,06,07,01,37,9.10
2020,06,07,01,38,9.10
2020,06,07,01,39,9.00
2020,06,07,01,40,9.00
2020,06,07,01,41,8.90
2020,06,07,01,42,8.90
2020,06,07,01,43,8.90
2020,06,07,01,44,8.80
2020,06,07,01,45,8.80
2020,06,07,01,46,8.80
2020,06,07,01,47,8.80
2020,06,07,01,48,8.80
2020,06,07,01,49,8.80
2020,06,07,01,50,8.80
2020,06,07,01,51,8.80
2020,06,07,01,52,8.80
2020,06,07,01,53,8.80
2020,06,07,01,54,8.80
2020,06,07,01,55,8.80
2020,06,07,01,56,8.80
2020,06,07,01,57,8.80
2020,06,07,01,58,8.90
2020,06,07,01,59,8.90
2020,06,07,02,00,8.90
2020,06,07,02,01,8.90
2020,06,07,02,02,8.90
2020,06,07,02,03,8.90
2020,06,07,02,04,8.90
2020,06,07,02,05,9.00
2020,06,07,02,06,9.00
2020,06,07,02,07,9.00
2020,06,07,02,08,9.00
2020,06,07,02,09,9.00
2020,06,07,02,10,9.00
2020,06,07,02,11,9.00
2020,06,07,02,12,8.90
2020,06,07,02,13,8.90
2020,06,07,02,14,8.90
2020,06,07,02,15,8.80
2020,06,07,02,16,8.80
2020,06,07,02,17,8.70
2020,06,07,02,18,8.70
2020,06,07,02,19,8.70
2020,06,07,02,20,8.70
2020,06,07,02,21,8.70
2020,06,07,02,22,8.70
2020,06,07,02,23,8.70
2020,06,07,02,24,8.80
2020,06,07,02,25,8.80
2020,06,07,02,26,8.80
2020,06,07,02,27,8.80
2020,06,07,02,28,8.80
2020,06,07,02,29,8.80
2020,06,07,02,30,8.90
2020,06,07,02,31,8.90
2020,06,07,02,32,8.90
2020,06,07,02,33,8.90
2020,06,07,02,34,8.90
2020,06,07,02,35,9.00
2020,06,07,02,36,9.00
2020,06,07,02,37,9.00
2020,06,07,02,38,9.00
2020,06,07,02,39,9.10
2020,06,07,02,40,9.10
2020,06,07,02,41,9.10
2020,06,07,02,42,9.10
2020,06,07,02,43,9.10
2020,06,07,02,44,9.10
2020,06,07,02,45,9.10
2020,06,07,02,46,9.10
2020,06,07,02,47,9.10
2020,06,07,02,48,9.10
2020,06,07,02,49,9.10
2020,06,07,02,50,9.10
2020,06,07,02,51,9.10
2020,06,07,02,52,9.10
2020,06,07,02,53,9.10
2020,06,07,02,54,9.10
2020,06,07,02,55,9.10
2020,06,07,02,56,9.10
2020,06,07,02,57,9.10
2020,06,07,02,58,9.10
2020,06,07,02,59,9.10
2020,06,07,03,00,9.10
2020,06,07,03,01,9.10
2020,06,07,03,02,9.10
2020,06,07,03,03,9.10
2020,06,07,03,04,9.10
2020,06,07,03,05,9.20
2020,06,07,03,06,9.20
2020,06,07,03,07,9.20
2020,06,07,03,08,9.20
2020,06,07,03,09,9.20
2020,06,07,03,10,9.20
2020,06,07,03,11,9.20
2020,06,07,03,12,9.20
2020,06,07,03,13,9.20
2020,06,07,03,14,9.20
2020,06,07,03,15,9.20
2020,06,07,03,16,9.20
2020,06,07,03,17,9.20
2020,06,07,03,18,9.20
2020,06,07,03,19,9.20
2020,06,07,03,20,9.10
2020,06,07,03,21,9.10
2020,06,07,03,22,9.10
2020,06,07,03,23,9.00
2020,06,07,03,24,9.00
2020,06,07,03,25,8.90
2020,06,07,03,26,8.90
2020,06,07,03,27,8.90
2020,06,07,03,28,8.90
2020,06,07,03,29,8.90
2020,06,07,03,30,8.80
2020,06,07,03,31,8.80
2020,06,07,03,32,8.80
2020,06,07,03,33,8.80
2020,06,07,03,34,8.80
2020,06,07,03,35,8.80
2020,06,07,03,36,8.80
2020,06,07,03,37,8.80
2020,06,07,03,38,8.80
2020,06,07,03,39,8.80
2020,06,07,03,40,8.70
2020,06,07,03,41,8.70
2020,06,07,03,42,8.70
2020,06,07,03,43,8.70
2020,06,07,03,44,8.70
2020,06,07,03,45,8.70
2020,06,07,03,46,8.70
2020,06,07,03,47,8.60
2020,06,07,03,48,8.60
2020,06,07,03,49,8.60
2020,06,07,03,50,8.60
2020,06,07,03,51,8.60
2020,06,07,03,52,8.60
2020,06,07,03,53,8.50
2020,06,07,03,54,8.50
2020,06,07,03,55,8.50
2020,06,07,03,56,8.50
2020,06,07,03,57,8.50
2020,06,07,03,58,8.40
2020,06,07,03,59,8.40
2020,06,07,04,00,8.40
2020,06,07,04,01,8.40
2020,06,07,04,02,8.40
2020,06,07,04,03,8.40
2020,06,07,04,04,8.40
2020,06,07,04,05,8.40
2020,06,07,04,06,8.40
2020,06,07,04,07,8.40
2020,06,07,04,08,8.40
2020,06,07,04,09,8.40
2020,06,07,04,10,8.40
2020,06,07,04,11,8.40
2020,06,07,04,12,8.40
2020,06,07,04,13,8.40
2020,06,07,04,14,8.40
2020,06,07,04,15,8.40
2020,06,07,04,16,8.40
2020,06,07,04,17,8.40
2020,06,07,04,18,8.40
2020,06,07,04,19,8.40
2020,06,07,04,20,8.40
2020,06,07,04,21,8.40
2020,06,07,04,22,8.30
2020,06,07,04,23,8.30
2020,06,07,04,24,8.30
2020,06,07,04,25,8.30
2020,06,07,04,26,8.30
2020,06,07,04,27,8.30
2020,06,07,04,28,8.30
2020,06,07,04,29,8.30
2020,06,07,04,30,8.30
2020,06,07,04,31,8.30
2020,06,07,04,32,8.30
2020,06,07,04,33,8.30
2020,06,07,04,34,8.30
2020,06,07,04,35,8.30
2020,06,07,04,36,8.30
2020,06,07,04,37,8.30
2020,06,07,04,38,8.40
2020,06,07,04,39,8.40
2020,06,07,04,40,8.40
2020,06,07,04,41,8.40
2020,06,07,04,42,8.40
2020,06,07,04,43,8.40
2020,06,07,04,44,8.30
2020,06,07,04,45,8.30
2020,06,07,04,46,8.30
2020,06,07,04,47,8.30
2020,06,07,04,48,8.30
2020,06,07,04,49,8.30
2020,06,07,04,50,8.30
2020,06,07,04,51,8.30
2020,06,07,04,52,8.30
2020,06,07,04,53,8.40
2020,06,07,04,54,8.40
2020,06,07,04,55,8.40
2020,06,07,04,56,8.40
2020,06,07,04,57,8.40
2020,06,07,04,58,8.40
2020,06,07,04,59,8.40
2020,06,07,05,00,8.40
2020,06,07,05,01,8.40
2020,06,07,05,02,8.40
2020,06,07,05,03,8.40
2020,06,07,05,04,8.40
2020,06,07,05,05,8.40
2020,06,07,05,06,8.40
2020,06,07,05,07,8.40
2020,06,07,05,08,8.40
2020,06,07,05,09,8.40
2020,06,07,05,10,8.30
2020,06,07,05,11,8.30
2020,06,07,05,12,8.30
2020,06,07,05,13,8.30
2020,06,07,05,14,8.30
2020,06,07,05,15,8.30
2020,06,07,05,16,8.30
2020,06,07,05,17,8.30
2020,06,07,05,18,8.30
2020,06,07,05,19,8.40
2020,06,07,05,20,8.40
2020,06,07,05,21,8.40
2020,06,07,05,22,8.40
2020,06,07,05,23,8.40
2020,06,07,05,24,8.40
2020,06,07,05,25,8.40
2020,06,07,05,26,8.30
2020,06,07,05,27,8.40
2020,06,07,05,28,8.30
2020,06,07,05,29,8.30
2020,06,07,05,30,8.30
2020,06,07,05,31,8.20
2020,06,07,05,32,8.20
2020,06,07,05,33,8.20
2020,06,07,05,34,8.20
2020,06,07,05,35,8.20
2020,06,07,05,36,8.20
2020,06,07,05,37,8.20
2020,06,07,05,38,8.20
2020,06,07,05,39,8.20
2020,06,07,05,40,8.30
2020,06,07,05,41,8.30
2020,06,07,05,42,8.30
2020,06,07,05,43,8.30
2020,06,07,05,44,8.30
2020,06,07,05,45,8.30
2020,06,07,05,46,8.30
2020,06,07,05,47,8.40
2020,06,07,05,48,8.40
2020,06,07,05,49,8.40
2020,06,07,05,50,8.40
2020,06,07,05,51,8.40
2020,06,07,05,52,8.40
2020,06,07,05,53,8.40
2020,06,07,05,54,8.50
2020,06,07,05,55,8.50
2020,06,07,05,56,8.50
2020,06,07,05,57,8.50
2020,06,07,05,58,8.50
2020,06,07,05,59,8.60
2020,06,07,06,00,8.60
2020,06,07,06,01,8.60
2020,06,07,06,02,8.60
2020,06,07,06,03,8.70
2020,06,07,06,04,8.70
2020,06,07,06,05,8.70
2020,06,07,06,06,8.80
2020,06,07,06,07,8.80
2020,06,07,06,08,8.80
2020,06,07,06,09,8.80
2020,06,07,06,10,8.90
2020,06,07,06,11,8.90
2020,06,07,06,12,8.90
2020,06,07,06,13,9.00
2020,06,07,06,14,9.00
2020,06,07,06,15,9.10
2020,06,07,06,16,9.10
2020,06,07,06,17,9.10
2020,06,07,06,18,9.20
2020,06,07,06,19,9.20
2020,06,07,06,20,9.20
2020,06,07,06,21,9.30
2020,06,07,06,22,9.30
2020,06,07,06,23,9.30
2020,06,07,06,24,9.40
2020,06,07,06,25,9.40
2020,06,07,06,26,9.50
2020,06,07,06,27,9.50
2020,06,07,06,28,9.50
2020,06,07,06,29,9.60
2020,06,07,06,30,9.60
2020,06,07,06,31,9.60
2020,06,07,06,32,9.70
2020,06,07,06,33,9.70
2020,06,07,06,34,9.70
2020,06,07,06,35,9.70
2020,06,07,06,36,9.80
2020,06,07,06,37,9.80
2020,06,07,06,38,9.80
2020,06,07,06,39,9.80
2020,06,07,06,40,9.90
2020,06,07,06,41,9.90
2020,06,07,06,42,9.90
2020,06,07,06,43,10.00
2020,06,07,06,44,10.00
2020,06,07,06,45,10.00
2020,06,07,06,46,10.10
2020,06,07,06,47,10.10
2020,06,07,06,48,10.20
2020,06,07,06,49,10.30
2020,06,07,06,50,10.30
2020,06,07,06,51,10.40
2020,06,07,06,52,10.40
2020,06,07,06,53,10.50
2020,06,07,06,54,10.60
2020,06,07,06,55,10.60
2020,06,07,06,56,10.70
2020,06,07,06,57,10.70
2020,06,07,06,58,10.80
2020,06,07,06,59,10.80
2020,06,07,07,00,10.90
2020,06,07,07,01,10.90
2020,06,07,07,02,11.00
2020,06,07,07,03,11.00
2020,06,07,07,04,11.10
2020,06,07,07,05,11.10
2020,06,07,07,06,11.10
2020,06,07,07,07,11.20
2020,06,07,07,08,11.20
2020,06,07,07,09,11.20
2020,06,07,07,10,11.30
2020,06,07,07,11,11.30
2020,06,07,07,12,11.40
2020,06,07,07,13,11.40
2020,06,07,07,14,11.50
2020,06,07,07,15,11.50
2020,06,07,07,16,11.50
2020,06,07,07,17,11.50
2020,06,07,07,18,11.60
2020,06,07,07,19,11.60
2020,06,07,07,20,11.60
2020,06,07,07,21,11.70
2020,06,07,07,22,11.70
2020,06,07,07,23,11.70
2020,06,07,07,24,11.70
2020,06,07,07,25,11.80
2020,06,07,07,26,11.70
2020,06,07,07,27,11.70
2020,06,07,07,28,11.80
2020,06,07,07,29,11.80
2020,06,07,07,30,11.90
2020,06,07,07,31,11.90
2020,06,07,07,32,12.00
2020,06,07,07,33,12.00
2020,06,07,07,34,11.90
2020,06,07,07,35,11.90
2020,06,07,07,36,11.90
2020,06,07,07,37,11.90
2020,06,07,07,38,11.90
2020,06,07,07,39,11.90
2020,06,07,07,40,11.90
2020,06,07,07,41,11.90
2020,06,07,07,42,11.90
2020,06,07,07,43,11.90
2020,06,07,07,44,12.00
2020,06,07,07,45,12.00
2020,06,07,07,46,12.00
2020,06,07,07,47,12.00
2020,06,07,07,48,12.00
2020,06,07,07,49,12.10
2020,06,07,07,50,12.20
2020,06,07,07,51,12.20
2020,06,07,07,52,12.30
2020,06,07,07,53,12.30
2020,06,07,07,54,12.30
2020,06,07,07,55,12.40
2020,06,07,07,56,12.40
2020,06,07,07,57,12.40
2020,06,07,07,58,12.50
2020,06,07,07,59,12.60
2020,06,07,08,00,12.60
2020,06,07,08,01,12.70
2020,06,07,08,02,12.70
2020,06,07,08,03,12.80
2020,06,07,08,04,12.80
2020,06,07,08,05,12.80
2020,06,07,08,06,12.80
2020,06,07,08,07,12.80
2020,06,07,08,08,12.90
2020,06,07,08,09,12.90
2020,06,07,08,10,12.90
2020,06,07,08,11,12.90
2020,06,07,08,12,13.00
2020,06,07,08,13,13.00
2020,06,07,08,14,13.00
2020,06,07,08,15,13.10
2020,06,07,08,16,13.10
2020,06,07,08,17,13.20
2020,06,07,08,18,13.10
2020,06,07,08,19,13.20
2020,06,07,08,20,13.20
2020,06,07,08,21,13.20
2020,06,07,08,22,13.20
2020,06,07,08,23,13.20
2020,06,07,08,24,13.20
2020,06,07,08,25,13.20
2020,06,07,08,26,13.20
2020,06,07,08,27,13.20
2020,06,07,08,28,13.20
2020,06,07,08,29,13.20
2020,06,07,08,30,13.30
2020,06,07,08,31,13.30
2020,06,07,08,32,13.30
2020,06,07,08,33,13.30
2020,06,07,08,34,13.30
2020,06,07,08,35,13.40
2020,06,07,08,36,13.40
2020,06,07,08,37,13.40
2020,06,07,08,38,13.50
2020,06,07,08,39,13.60
2020,06,07,08,40,13.60
2020,06,07,08,41,13.60
2020,06,07,08,42,13.70
2020,06,07,08,43,13.70
2020,06,07,08,44,13.70
2020,06,07,08,45,13.70
2020,06,07,08,46,13.70
2020,06,07,08,47,13.80
2020,06,07,08,48,13.80
2020,06,07,08,49,13.80
2020,06,07,08,50,13.90
2020,06,07,08,51,14.00
2020,06,07,08,52,14.00
2020,06,07,08,53,13.90
2020,06,07,08,54,13.90
2020,06,07,08,55,13.90
2020,06,07,08,56,13.90
2020,06,07,08,57,13.80
2020,06,07,08,58,13.80
2020,06,07,08,59,13.90
2020,06,07,09,00,13.90
2020,06,07,09,01,13.90
2020,06,07,09,02,13.90
2020,06,07,09,03,13.90
2020,06,07,09,04,13.90
2020,06,07,09,05,13.90
2020,06,07,09,06,14.00
2020,06,07,09,07,14.00
2020,06,07,09,08,14.00
2020,06,07,09,09,14.10
2020,06,07,09,10,14.10
2020,06,07,09,11,14.20
2020,06,07,09,12,14.20
2020,06,07,09,13,14.10
2020,06,07,09,14,14.10
2020,06,07,09,15,14.10
2020,06,07,09,16,14.00
2020,06,07,09,17,14.10
2020,06,07,09,18,14.10
2020,06,07,09,19,14.10
2020,06,07,09,20,14.10
2020,06,07,09,21,14.20
2020,06,07,09,22,14.30
2020,06,07,09,23,14.30
2020,06,07,09,24,14.30
2020,06,07,09,25,14.30
2020,06,07,09,26,14.30
2020,06,07,09,27,14.30
2020,06,07,09,28,14.30
2020,06,07,09,29,14.30
2020,06,07,09,30,14.30
2020,06,07,09,31,14.30
2020,06,07,09,32,14.30
2020,06,07,09,33,14.40
2020,06,07,09,34,14.40
2020,06,07,09,35,14.50
2020,06,07,09,36,14.50
2020,06,07,09,37,14.60
2020,06,07,09,38,14.60
2020,06,07,09,39,14.70
2020,06,07,09,40,14.70
2020,06,07,09,41,14.70
2020,06,07,09,42,14.80
2020,06,07,09,43,14.90
2020,06,07,09,44,14.90
2020,06,07,09,45,15.10
2020,06,07,09,46,15.10
2020,06,07,09,47,15.10
2020,06,07,09,48,15.10
2020,06,07,09,49,15.20
2020,06,07,09,50,15.20
2020,06,07,09,51,15.20
2020,06,07,09,52,15.20
2020,06,07,09,53,15.10
2020,06,07,09,54,15.00
2020,06,07,09,55,14.80
2020,06,07,09,56,14.70
2020,06,07,09,57,14.60
2020,06,07,09,58,14.60
2020,06,07,09,59,14.60
2020,06,07,10,00,14.60
2020,06,07,10,01,14.60
2020,06,07,10,02,14.60
2020,06,07,10,03,14.60
2020,06,07,10,04,14.60
2020,06,07,10,05,14.60
2020,06,07,10,06,14.50
2020,06,07,10,07,14.50
2020,06,07,10,08,14.50
2020,06,07,10,09,14.50
2020,06,07,10,10,14.60
2020,06,07,10,11,14.60
2020,06,07,10,12,14.60
2020,06,07,10,13,14.60
2020,06,07,10,14,14.80
2020,06,07,10,15,15.00
2020,06,07,10,16,15.10
2020,06,07,10,17,15.20
2020,06,07,10,18,15.20
2020,06,07,10,19,15.20
2020,06,07,10,20,15.20
2020,06,07,10,21,15.20
2020,06,07,10,22,15.20
2020,06,07,10,23,15.20
2020,06,07,10,24,15.20
2020,06,07,10,25,15.20
2020,06,07,10,26,15.20
2020,06,07,10,27,15.10
2020,06,07,10,28,15.10
2020,06,07,10,29,15.10
2020,06,07,10,30,15.10
2020,06,07,10,31,15.00
2020,06,07,10,32,15.00
2020,06,07,10,33,15.00
2020,06,07,10,34,14.90
2020,06,07,10,35,15.00
2020,06,07,10,36,15.00
2020,06,07,10,37,15.10
2020,06,07,10,38,15.10
2020,06,07,10,39,15.20
2020,06,07,10,40,15.20
2020,06,07,10,41,15.20
2020,06,07,10,42,15.30
2020,06,07,10,43,15.30
2020,06,07,10,44,15.30
2020,06,07,10,45,15.30
2020,06,07,10,46,15.30
2020,06,07,10,47,15.30
2020,06,07,10,48,15.30
2020,06,07,10,49,15.30
2020,06,07,10,50,15.30
2020,06,07,10,51,15.30
2020,06,07,10,52,15.30
2020,06,07,10,53,15.30
2020,06,07,10,54,15.30
2020,06,07,10,55,15.30
2020,06,07,10,56,15.20
2020,06,07,10,57,15.20
2020,06,07,10,58,15.20
2020,06,07,10,59,15.20
2020,06,07,11,00,15.20
2020,06,07,11,01,15.20
2020,06,07,11,02,15.20
2020,06,07,11,03,15.20
2020,06,07,11,04,15.10
2020,06,07,11,05,15.20
2020,06,07,11,06,15.20
2020,06,07,11,07,15.20
2020,06,07,11,08,15.20
2020,06,07,11,09,15.10
2020,06,07,11,10,15.10
2020,06,07,11,11,15.20
2020,06,07,11,12,15.20
2020,06,07,11,13,15.30
2020,06,07,11,14,15.40
2020,06,07,11,15,15.40
2020,06,07,11,16,15.50
2020,06,07,11,17,15.60
2020,06,07,11,18,15.60
2020,06,07,11,19,15.70
2020,06,07,11,20,15.80
2020,06,07,11,21,15.80
2020,06,07,11,22,15.80
2020,06,07,11,23,15.90
2020,06,07,11,24,15.90
2020,06,07,11,25,15.80
2020,06,07,11,26,15.80
2020,06,07,11,27,15.80
2020,06,07,11,28,15.80
2020,06,07,11,29,15.80
2020,06,07,11,30,15.80
2020,06,07,11,31,15.70
2020,06,07,11,32,15.70
2020,06,07,11,33,15.70
2020,06,07,11,34,15.70
2020,06,07,11,35,15.70
2020,06,07,11,36,15.60
2020,06,07,11,37,15.70
2020,06,07,11,38,15.70
2020,06,07,11,39,15.80
2020,06,07,11,40,15.80
2020,06,07,11,41,15.80
2020,06,07,11,42,15.90
2020,06,07,11,43,15.90
2020,06,07,11,44,15.90
2020,06,07,11,45,15.90
2020,06,07,11,46,15.80
2020,06,07,11,47,15.80
2020,06,07,11,48,15.70
2020,06,07,11,49,15.70
2020,06,07,11,50,15.70
2020,06,07,11,51,15.80
2020,06,07,11,52,15.90
2020,06,07,11,53,16.00
2020,06,07,11,54,16.10
2020,06,07,11,55,16.10
2020,06,07,11,56,16.10
2020,06,07,11,57,16.10
2020,06,07,11,58,16.10
2020,06,07,11,59,16.20
2020,06,07,12,00,16.20
2020,06,07,12,01,16.30
2020,06,07,12,02,16.30
2020,06,07,12,03,16.30
2020,06,07,12,04,16.30
2020,06,07,12,05,16.30
2020,06,07,12,06,16.30
2020,06,07,12,07,16.20
2020,06,07,12,08,16.20
2020,06,07,12,09,16.20
2020,06,07,12,10,16.20
2020,06,07,12,11,16.30
2020,06,07,12,12,16.40
2020,06,07,12,13,16.50
2020,06,07,12,14,16.50
2020,06,07,12,15,16.50
2020,06,07,12,16,16.50
2020,06,07,12,17,16.50
2020,06,07,12,18,16.50
2020,06,07,12,19,16.50
2020,06,07,12,20,16.50
2020,06,07,12,21,16.60
2020,06,07,12,22,16.60
2020,06,07,12,23,16.70
2020,06,07,12,24,16.70
2020,06,07,12,25,16.70
2020,06,07,12,26,16.70
2020,06,07,12,27,16.70
2020,06,07,12,28,16.70
2020,06,07,12,29,16.70
2020,06,07,12,30,16.70
2020,06,07,12,31,16.70
2020,06,07,12,32,16.80
2020,06,07,12,33,16.80
2020,06,07,12,34,16.70
2020,06,07,12,35,16.70
2020,06,07,12,36,16.70
2020,06,07,12,37,16.80
2020,06,07,12,38,16.80
2020,06,07,12,39,16.80
2020,06,07,12,40,16.70
2020,06,07,12,41,16.70
2020,06,07,12,42,16.70
2020,06,07,12,43,16.60
2020,06,07,12,44,16.70
2020,06,07,12,45,16.70
2020,06,07,12,46,16.80
2020,06,07,12,47,16.80
2020,06,07,12,48,16.90
2020,06,07,12,49,16.90
2020,06,07,12,50,16.90
2020,06,07,12,51,17.00
2020,06,07,12,52,17.00
2020,06,07,12,53,17.00
2020,06,07,12,54,17.00
2020,06,07,12,55,17.00
2020,06,07,12,56,17.00
2020,06,07,12,57,17.10
2020,06,07,12,58,17.10
2020,06,07,12,59,17.10
2020,06,07,13,00,17.20
2020,06,07,13,01,17.30
2020,06,07,13,02,17.40
2020,06,07,13,03,17.50
2020,06,07,13,04,17.40
2020,06,07,13,05,17.40
2020,06,07,13,06,17.40
2020,06,07,13,07,17.30
2020,06,07,13,08,17.30
2020,06,07,13,09,17.30
2020,06,07,13,10,17.40
2020,06,07,13,11,17.50
2020,06,07,13,12,17.60
2020,06,07,13,13,17.60
2020,06,07,13,14,17.50
2020,06,07,13,15,17.50
2020,06,07,13,16,17.40
2020,06,07,13,17,17.50
2020,06,07,13,18,17.50
2020,06,07,13,19,17.50
2020,06,07,13,20,17.60
2020,06,07,13,21,17.60
2020,06,07,13,22,17.70
2020,06,07,13,23,17.80
2020,06,07,13,24,17.80
2020,06,07,13,25,17.80
2020,06,07,13,26,17.80
2020,06,07,13,27,17.70
2020,06,07,13,28,17.60
2020,06,07,13,29,17.60
2020,06,07,13,30,17.60
2020,06,07,13,31,17.70
2020,06,07,13,32,17.70
2020,06,07,13,33,17.80
2020,06,07,13,34,17.80
2020,06,07,13,35,17.80
2020,06,07,13,36,17.80
2020,06,07,13,37,17.70
2020,06,07,13,38,17.70
2020,06,07,13,39,17.80
2020,06,07,13,40,17.80
2020,06,07,13,41,17.90
2020,06,07,13,42,17.90
2020,06,07,13,43,18.00
2020,06,07,13,44,18.00
2020,06,07,13,45,18.00
2020,06,07,13,46,18.00
2020,06,07,13,47,18.00
2020,06,07,13,48,18.10
2020,06,07,13,49,18.10
2020,06,07,13,50,18.10
2020,06,07,13,51,18.00
2020,06,07,13,52,18.10
2020,06,07,13,53,18.10
2020,06,07,13,54,18.00
2020,06,07,13,55,17.80
2020,06,07,13,56,17.80
2020,06,07,13,57,17.90
2020,06,07,13,58,18.00
2020,06,07,13,59,18.10
2020,06,07,14,00,18.10
2020,06,07,14,01,18.00
2020,06,07,14,02,18.00
2020,06,07,14,03,18.00
2020,06,07,14,04,18.10
2020,06,07,14,05,18.10
2020,06,07,14,06,18.20
2020,06,07,14,07,18.20
2020,06,07,14,08,18.20
2020,06,07,14,09,18.10
2020,06,07,14,10,18.00
2020,06,07,14,11,18.00
2020,06,07,14,12,18.00
2020,06,07,14,13,18.00
2020,06,07,14,14,17.90
2020,06,07,14,15,17.80
2020,06,07,14,16,17.80
2020,06,07,14,17,17.90
2020,06,07,14,18,18.00
2020,06,07,14,19,18.10
2020,06,07,14,20,18.20
2020,06,07,14,21,18.20
2020,06,07,14,22,18.10
2020,06,07,14,23,18.00
2020,06,07,14,24,18.00
2020,06,07,14,25,18.00
2020,06,07,14,26,18.00
2020,06,07,14,27,18.00
2020,06,07,14,28,18.00
2020,06,07,14,29,18.00
2020,06,07,14,30,17.90
2020,06,07,14,31,17.90
2020,06,07,14,32,17.90
2020,06,07,14,33,18.00
2020,06,07,14,34,18.10
2020,06,07,14,35,18.10
2020,06,07,14,36,18.20
2020,06,07,14,37,18.20
2020,06,07,14,38,18.10
2020,06,07,14,39,18.10
2020,06,07,14,40,18.00
2020,06,07,14,41,18.00
2020,06,07,14,42,18.10
2020,06,07,14,43,18.20
2020,06,07,14,44,18.30
2020,06,07,14,45,18.30
2020,06,07,14,46,18.20
2020,06,07,14,47,18.30
2020,06,07,14,48,18.30
2020,06,07,14,49,18.30
2020,06,07,14,50,18.30
2020,06,07,14,51,18.30
2020,06,07,14,52,18.40
2020,06,07,14,53,18.40
2020,06,07,14,54,18.40
2020,06,07,14,55,18.40
2020,06,07,14,56,18.40
2020,06,07,14,57,18.40
2020,06,07,14,58,18.40
2020,06,07,14,59,18.40
2020,06,07,15,00,18.40
2020,06,07,15,01,18.40
2020,06,07,15,02,18.30
2020,06,07,15,03,18.30
2020,06,07,15,04,18.40
2020,06,07,15,05,18.50
2020,06,07,15,06,18.50
2020,06,07,15,07,18.60
2020,06,07,15,08,18.60
2020,06,07,15,09,18.60
2020,06,07,15,10,18.70
2020,06,07,15,11,18.80
2020,06,07,15,12,18.80
2020,06,07,15,13,18.70
2020,06,07,15,14,18.60
2020,06,07,15,15,18.60
2020,06,07,15,16,18.60
2020,06,07,15,17,18.60
2020,06,07,15,18,18.70
2020,06,07,15,19,18.60
2020,06,07,15,20,18.60
2020,06,07,15,21,18.50
2020,06,07,15,22,18.40
2020,06,07,15,23,18.40
2020,06,07,15,24,18.50
2020,06,07,15,25,18.50
2020,06,07,15,26,18.40
2020,06,07,15,27,18.40
2020,06,07,15,28,18.40
2020,06,07,15,29,18.40
2020,06,07,15,30,18.40
2020,06,07,15,31,18.40
2020,06,07,15,32,18.50
2020,06,07,15,33,18.50
2020,06,07,15,34,18.60
2020,06,07,15,35,18.60
2020,06,07,15,36,18.60
2020,06,07,15,37,18.70
2020,06,07,15,38,18.70
2020,06,07,15,39,18.70
2020,06,07,15,40,18.70
2020,06,07,15,41,18.70
2020,06,07,15,42,18.70
2020,06,07,15,43,18.70
2020,06,07,15,44,18.60
2020,06,07,15,45,18.60
2020,06,07,15,46,18.60
2020,06,07,15,47,18.70
2020,06,07,15,48,18.70
2020,06,07,15,49,18.80
2020,06,07,15,50,18.80
2020,06,07,15,51,18.90
2020,06,07,15,52,18.90
2020,06,07,15,53,18.80
2020,06,07,15,54,18.80
2020,06,07,15,55,18.80
2020,06,07,15,56,18.80
2020,06,07,15,57,18.80
2020,06,07,15,58,18.80
2020,06,07,15,59,18.80
2020,06,07,16,00,18.80
2020,06,07,16,01,18.80
2020,06,07,16,02,18.80
2020,06,07,16,03,18.80
2020,06,07,16,04,18.90
2020,06,07,16,05,19.00
2020,06,07,16,06,19.00
2020,06,07,16,07,19.00
2020,06,07,16,08,19.10
2020,06,07,16,09,19.10
2020,06,07,16,10,19.00
2020,06,07,16,11,19.00
2020,06,07,16,12,19.00
2020,06,07,16,13,19.00
2020,06,07,16,14,19.00
2020,06,07,16,15,19.00
2020,06,07,16,16,19.00
2020,06,07,16,17,19.00
2020,06,07,16,18,19.10
2020,06,07,16,19,19.10
2020,06,07,16,20,19.10
2020,06,07,16,21,19.10
2020,06,07,16,22,19.00
2020,06,07,16,23,19.00
2020,06,07,16,24,19.10
2020,06,07,16,25,19.10
2020,06,07,16,26,19.20
2020,06,07,16,27,19.10
2020,06,07,16,28,19.10
2020,06,07,16,29,19.10
2020,06,07,16,30,19.10
2020,06,07,16,31,19.20
2020,06,07,16,32,19.20
2020,06,07,16,33,19.10
2020,06,07,16,34,19.10
2020,06,07,16,35,19.20
2020,06,07,16,36,19.20
2020,06,07,16,37,19.30
2020,06,07,16,38,19.30
2020,06,07,16,39,19.20
2020,06,07,16,40,19.20
2020,06,07,16,41,19.20
2020,06,07,16,42,19.20
2020,06,07,16,43,19.20
2020,06,07,16,44,19.20
2020,06,07,16,45,19.20
2020,06,07,16,46,19.20
2020,06,07,16,47,19.20
2020,06,07,16,48,19.20
2020,06,07,16,49,19.20
2020,06,07,16,50,19.20
2020,06,07,16,51,19.30
2020,06,07,16,52,19.30
2020,06,07,16,53,19.30
2020,06,07,16,54,19.30
2020,06,07,16,55,19.20
2020,06,07,16,56,19.20
2020,06,07,16,57,19.20
2020,06,07,16,58,19.20
2020,06,07,16,59,19.10
2020,06,07,17,00,19.10
2020,06,07,17,01,19.10
2020,06,07,17,02,19.10
2020,06,07,17,03,19.20
2020,06,07,17,04,19.10
2020,06,07,17,05,19.10
2020,06,07,17,06,19.20
2020,06,07,17,07,19.20
2020,06,07,17,08,19.20
2020,06,07,17,09,19.20
2020,06,07,17,10,19.20
2020,06,07,17,11,19.20
2020,06,07,17,12,19.20
2020,06,07,17,13,19.20
2020,06,07,17,14,19.30
2020,06,07,17,15,19.40
2020,06,07,17,16,19.40
2020,06,07,17,17,19.50
2020,06,07,17,18,19.50
2020,06,07,17,19,19.50
2020,06,07,17,20,19.40
2020,06,07,17,21,19.40
2020,06,07,17,22,19.40
2020,06,07,17,23,19.40
2020,06,07,17,24,19.30
2020,06,07,17,25,19.30
2020,06,07,17,26,19.30
2020,06,07,17,27,19.20
2020,06,07,17,28,19.20
2020,06,07,17,29,19.20
2020,06,07,17,30,19.10
2020,06,07,17,31,19.10
2020,06,07,17,32,19.10
2020,06,07,17,33,19.00
2020,06,07,17,34,19.00
2020,06,07,17,35,19.00
2020,06,07,17,36,19.00